Location: Fiennes
(50.8274°N, 1.8253°E)
Time: 00:35:20
(UTC+00:00)

Cosmos 1092 Rocket - Pass Details

Date: 15 May 2026
Orbit: 953 x 994 km, 83.0° (Epoch: 9 June)

Event Time Altitude Azimuth Distance (km) Brightness Sun altitude
Rises 21:32:48 0° 352° (N) 3,648 8.3 -14.0°
Reaches altitude 10° 21:35:23 10° 358° (N) 2,702 7.3 -14.2°
Maximum altitude 21:41:24 51° 74° (ENE) 1,198 4.4 -14.7°
Enters shadow 21:45:21 21° 141° (SE) 2,000 5.0 -15.0°
